Volver al catálogo

STARLINK-34492

ActivoComunicacionesVLEO
NORAD 64473·PAYLOAD·🇺🇸 United States

Lanzado Jun 23, 2025 desde Cape Canaveral Space Force Station

Loading…

Próximos Pases (próximas 24 horas)

TLE

ActualizadoSource: CelesTrak SupGP

Época: Sep 14, 2026, 21:34 UTC

1 64473C 25133B   26257.89909722  .00004126  00000+0  12192-3 0  2573
2 64473  53.1585 315.7643 0001268  87.1290  69.3180 15.34380208    18

Sigue STARLINK-34492 en tiempo real con AllMySat

Download on the App Store